カタログに戻る

STARLINK-34735

運用中通信SSO
NORAD 65072·PAYLOAD·🇺🇸 United States

打ち上げ Jul 31, 2025 から Vandenberg Space Force Base

Loading…

次のパス (今後24時間)

TLE

最新Source: CelesTrak SupGP

元期: Sep 15, 2026, 03:28 UTC

1 65072C 25165S   26258.14493056  .02195600  00000+0  10991+0 0  2583
2 65072  97.2846 329.4251 0001810  85.2910 269.3573 15.16375522    12

AllMySatでSTARLINK-34735をリアルタイム追跡

Download on the App Store